Weather Roundup
Issued by NWS

Home | Current Version | Previous Version | Graphics & Text | Print | Product List | Glossary Off
Versions: 1 2 3 4 5 6 7 8 9 10 11 12 13 14 15 16 17 18 19 20 21 22 23 24 25 26 27 28 29 30 31 32 33 34 35 36 37 38 39 40 41 42 43 44 45 46 47 48 49 50

000
NZUS93 KARX 310310
HRRWXR

CURRENT HOURLY OBSERVATIONS ACROSS
MUCH OF THE UPPER MISSISSIPPI VALLEY
NATIONAL WEATHER SERVICE LA CROSSE WI
900 PM CST FRI JAN 30 2015


...SOUTHEAST MINNESOTA...


CITY           SKY/WX    TMP DP  RH WIND       PRES   REMARKS
ROCHESTER      CLEAR     20  13  74 S10       30.23F WCI   9
ROCHESTER/MAYO FAIR      23  13  65 S14       30.23F WCI  10
WINONA         CLOUDY    23  12  63 CALM      30.28F
AUSTIN         CLEAR     23  18  80 S7        30.24R WCI  15
ALBERT LEA     CLEAR     27  19  74 S8        30.22S WCI  18
DODGE CENTER   CLEAR     25  19  80 S12       30.22S WCI  14
PRESTON        CLEAR     21  12  69 S15       30.25S WCI   7
OWATONNA       CLEAR     25  19  80 S12       30.21F WCI  14
FARIBAULT      CLEAR     25  19  80 S7        30.21F WCI  17
$$

...ELSEWHERE IN MINNESOTA...


CITY           SKY/WX    TMP DP  RH WIND       PRES   REMARKS
MINNEAPOLIS    PTCLDY    25  18  74 S5        30.21F WCI  19
INTNL FALLS    CLOUDY    13   9  84 CALM      30.11F
DULUTH         CLOUDY    16   6  65 SW6       30.14F WCI   7
RED WING       CLEAR     19  12  73 CALM      30.24R
REDWOOD FALLS  CLEAR     27  23  85 S5        30.17F WCI  22
MANKATO        CLEAR     27  19  74 S8        30.21S WCI  18
WORTHINGTON    CLEAR     30  25  80 SW21      30.16S WCI  17
FAIRMONT       FAIR      28  21  74 S12       30.19R WCI  18
$$

...SOUTHWEST WISCONSIN...


CITY           SKY/WX    TMP DP  RH WIND       PRES   REMARKS
LA CROSSE      MOCLDY    23  10  57 S9        30.28F WCI  13
PRAIRIE DU CHI PTCLDY    20  10  66 CALM      30.32F
BOSCOBEL       CLOUDY    19  12  74 CALM      30.34F
LONE ROCK      PTCLDY    15   8  73 SE3       30.34F
PLATTEVILLE    CLOUDY    22  16  78 S6        30.32F WCI  14
FORT MC COY    CLOUDY    13   8  81 S3        30.29F
CAMP DOUGLAS   PTCLDY    11   8  87 SE6       30.28F WCI   1
VIROQUA        CLOUDY    22  12  67 S7        30.27F WCI  13
WIS DELLS      CLEAR     15   7  70 S6        30.30F WCI   7
$$

...ELSEWHERE IN WISCONSIN...


CITY           SKY/WX    TMP DP  RH WIND       PRES   REMARKS
MILWAUKEE      PTCLDY    21   9  59 S7        30.36F WCI  12
MADISON        PTCLDY    17   8  67 S3        30.33F
GREEN BAY      CLOUDY    17  11  77 CALM      30.31F
EAU CLAIRE     CLOUDY    19   7  59 S5        30.24F WCI  12
BLACK RVR FLS  CLOUDY     7   2  83 S3        30.26F
MEDFORD        CLOUDY    11   3  71 S6        30.22F WCI   1
WAUSAU         PTCLDY    13   4  67 SW3       30.25R
WIS RAPIDS     CLEAR     14   3  61 S9        30.26F WCI   2
MARSHFIELD     PTCLDY    15   4  61 CALM      30.25F
RICE LAKE      CLOUDY    16   7  69 SE6       30.24F WCI   7
$$

...NORTHEAST IOWA...


CITY           SKY/WX    TMP DP  RH WIND       PRES   REMARKS
DECORAH        CLEAR     23  12  63 S7        30.26F WCI  15
MASON CITY     CLEAR     23  18  81 S9        30.25F WCI  13
CHARLES CITY   CLEAR     23  16  74 S12       30.27F WCI  12
OELWEIN        CLEAR     21  16  79 S9        30.30F WCI  11
$$

...ELSEWHERE IN IOWA...


CITY           SKY/WX    TMP DP  RH WIND       PRES   REMARKS
DES MOINES     PTCLDY    29  15  56 S9        30.31F WCI  20
IOWA CITY      CLEAR     22  17  81 CALM      30.36F
FORT DODGE     CLEAR     28  18  64 S10       30.26S WCI  19
$$

...NORTHERN ILLINOIS...


CITY           SKY/WX    TMP DP  RH WIND       PRES   REMARKS
CHICAGO-OHARE  PTCLDY    22  13  68 CALM      30.39F
CHICAGO-MIDWAY PTCLDY    26  14  60 SW3       30.40F
MOLINE         CLEAR     20  15  81 CALM      30.37F
ROCKFORD       CLEAR     19  12  74 S5        30.39F WCI  12
PEORIA         CLEAR     26  17  68 CALM      30.41F
$$

NOTE: "FAIR" INDICATES FEW OR NO CLOUDS BELOW 12,000 FEET WITH NO
SIGNIFICANT WEATHER AND/OR OBSTRUCTIONS TO VISIBILITY. WIND
SPEEDS ARE IN MILES-PER-HOUR.



USA.gov is the U.S. government's official web portal to all federal, state and local government web resources and services.